TimeCDT,TemperatureF,Dew PointF,Humidity,Sea Level PressureIn,VisibilityMPH,Wind Direction,Wind SpeedMPH,Gust SpeedMPH,PrecipitationIn,Events,Conditions,WindDirDegrees,DateUTC
12:55 AM,56.7,50.0,78,29.85,10.0,SE,6.9,-,N/A,,Clear,140,2012-10-16 05:55:00
1:55 AM,57.6,50.9,78,29.83,10.0,South,6.9,-,N/A,,Clear,170,2012-10-16 06:55:00
2:55 AM,56.1,51.4,84,29.80,10.0,South,8.1,-,N/A,,Clear,170,2012-10-16 07:55:00
3:55 AM,55.9,51.8,86,29.78,10.0,South,8.1,-,N/A,,Clear,180,2012-10-16 08:55:00
4:55 AM,55.4,52.5,90,29.77,10.0,SSW,10.4,-,N/A,,Clear,200,2012-10-16 09:55:00
5:55 AM,56.5,52.5,87,29.75,10.0,SSW,11.5,-,N/A,,Clear,200,2012-10-16 10:55:00
6:55 AM,57.4,52.0,82,29.75,10.0,SSW,15.0,-,N/A,,Clear,200,2012-10-16 11:55:00
7:55 AM,57.0,52.0,83,29.75,10.0,SSW,13.8,-,N/A,,Clear,200,2012-10-16 12:55:00
8:55 AM,61.5,52.0,71,29.74,10.0,SSW,18.4,25.3,N/A,,Clear,210,2012-10-16 13:55:00
9:55 AM,66.7,51.4,58,29.72,10.0,SSW,19.6,33.4,N/A,,Clear,210,2012-10-16 14:55:00
10:55 AM,71.6,51.3,49,29.71,10.0,SW,20.7,27.6,N/A,,Clear,220,2012-10-16 15:55:00
11:55 AM,74.5,50.9,43,29.70,10.0,SSW,20.7,35.7,N/A,,Clear,210,2012-10-16 16:55:00
12:55 PM,75.7,49.8,40,29.67,10.0,SW,25.3,35.7,N/A,,Partly Cloudy,220,2012-10-16 17:55:00
1:55 PM,78.1,49.5,37,29.64,10.0,SSW,24.2,32.2,N/A,,Clear,210,2012-10-16 18:55:00
2:55 PM,79.3,49.3,35,29.60,10.0,SSW,25.3,31.1,N/A,,Clear,210,2012-10-16 19:55:00
3:55 PM,78.6,49.1,35,29.59,10.0,SSW,26.5,31.1,N/A,,Clear,210,2012-10-16 20:55:00
4:55 PM,77.9,46.4,33,29.56,10.0,SW,24.2,35.7,N/A,,Clear,220,2012-10-16 21:55:00
5:55 PM,75.4,46.9,36,29.56,10.0,SSW,17.3,-,N/A,,Clear,210,2012-10-16 22:55:00
6:55 PM,66.7,48.6,52,29.56,10.0,SSW,12.7,-,N/A,,Clear,200,2012-10-16 23:55:00
7:55 PM,65.1,46.6,51,29.56,10.0,SSW,12.7,-,N/A,,Clear,200,2012-10-17 00:55:00
8:55 PM,63.7,46.0,53,29.56,10.0,SSW,13.8,-,N/A,,Clear,200,2012-10-17 01:55:00
9:55 PM,63.7,46.8,54,29.57,10.0,SSW,11.5,-,N/A,,Clear,200,2012-10-17 02:55:00
10:55 PM,63.1,46.4,54,29.57,10.0,SSW,13.8,-,N/A,,Clear,200,2012-10-17 03:55:00
11:55 PM,63.0,47.5,57,29.55,10.0,SSW,12.7,-,N/A,,Clear,200,2012-10-17 04:55:00